GFSMW_850_dewp_000.txt.gz
Dewpoint
-4 -4 -4 -5 -4 -2 -0 1 2 4 5 7 7 6 4 4 3 0 -2 -0 -0 1 2 4 5 8 9 9 9 9 8 8 8 8 8 8 7 7 7 6 5 3 3
-1 -1 -1 -4 -4 -4 -4 -1 1 3 4 5 5 7 6 5 5 3 2 2 3 3 6 6 6 8 9 10 10 10 10 9 9 9 9 9 8 7 6 5 4 3 4
0 0 -1 -4 -4 -4 -3 -4 -1 1 4 5 6 6 7 9 9 8 9 10 10 10 10 10 10 10 11 10 10 11 11 10 10 10 9 9 8 6 6 5 4 4 6
-0 -0 -0 -2 -4 -4 -4 -3 -2 -1 3 5 6 7 8 9 8 9 9 9 9 8 7 8 10 11 11 11 11 11 11 11 10 10 9 9 9 8 7 7 6 5 5
-1 -1 -1 -1 -1 -3 -3 -2 -1 -1 0 3 4 6 7 8 8 9 10 9 9 9 9 8 10 10 11 11 12 12 12 11 11 10 9 9 10 10 9 9 8 7 7
-0 -1 -1 -1 -1 -1 -1 -1 -1 -2 -2 -2 0 3 3 5 6 6 8 8 8 9 9 9 9 9 10 11 12 12 12 12 11 10 10 9 10 9 9 9 9 9 8
0 -0 -0 -0 -0 -0 -1 -1 -1 -1 -1 -1 -1 -1 -0 3 6 8 9 9 10 10 10 10 10 10 10 10 11 12 12 12 12 11 10 9 9 9 9 9 9 9 8
0 1 2 2 1 1 1 1 0 -0 -0 -0 -0 -0 -1 -1 -2 -1 0 4 7 8 9 10 10 11 11 11 11 11 12 12 12 12 11 11 10 10 10 9 9 8 8
0 1 2 2 1 1 1 1 1 1 1 0 0 -0 -0 -0 -0 0 0 -0 -1 -1 -1 4 7 8 9 10 11 11 11 11 11 11 11 11 11 11 10 10 10 9 9
1 1 2 2 2 2 2 2 2 2 2 1 1 2 2 2 2 2 2 1 1 1 0 0 -0 0 3 5 7 9 10 10 10 11 11 11 11 11 11 10 10 9 9
1 2 2 2 2 2 2 2 2 1 1 1 1 0 1 3 3 3 3 3 2 2 2 3 3 2 1 0 0 2 5 8 9 10 10 10 10 10 10 10 10 9 9
2 2 2 2 2 2 2 2 1 1 1 0 -1 -1 -0 1 1 -0 -1 -3 -4 -5 -5 -4 -2 -0 1 3 3 2 2 3 4 6 8 9 9 9 10 10 10 10 9
2 2 2 1 1 1 2 2 2 0 0 -1 1 2 2 1 1 -0 -2 -3 -4 -4 -5 -6 -6 -4 -1 2 2 3 3 4 5 6 6 6 7 9 9 9 10 10 9
1 1 1 0 0 0 1 2 1 2 3 2 1 -1 -1 -1 -3 -3 -4 -5 -4 -4 -4 -5 -6 -5 -4 -0 2 4 4 5 5 5 4 4 3 5 8 9 10 9 9
1 0 0 0 0 1 2 3 3 3 3 1 0 -1 0 -1 -2 -3 -4 -5 -4 -3 -3 -3 -3 -1 0 -0 3 2 3 4 4 4 4 4 3 4 4 8 9 9 9
0 -0 -1 -0 2 3 4 2 2 3 2 0 -0 -1 -0 -1 -2 -3 -3 -2 -2 -2 -3 -2 -1 -1 0 0 -2 2 4 4 4 4 4 4 4 3 3 6 6 8 8
0 -1 1 2 2 0 -0 1 2 2 -1 -2 -3 -2 -3 -5 -5 -5 -4 -4 -4 -4 -3 -2 -1 -0 -2 -1 1 2 2 3 3 3 3 3 5 6 5 4 5 6 7
-0 1 -1 -2 -3 -1 1 1 -1 -3 -5 -5 -5 -6 -7 -7 -7 -6 -6 -6 -6 -5 -5 -5 -3 -2 -1 -0 0 -0 -0 -1 -1 0 2 3 4 5 6 5 4 6 7
0 -1 -1 -1 -1 -2 -2 -4 -5 -6 -8 -8 -10 -13 -13 -13 -13 -11 -10 -11 -9 -7 -9 -7 -6 -3 -3 -3 -4 -5 -9 -11 -7 1 2 3 2 2 4 5 5 4 6
1 1 -1 -2 -3 -4 -6 -8 -10 -14 -15 -18 -19 -19 -19 -18 -17 -16 -15 -13 -11 -13 -9 -10 -9 -7 -5 -7 -10 -17 -8 -6 -6 -13 -13 -5 -1 2 2 3 4 4 4
0 -1 -1 -4 -5 -9 -12 -17 -20 -21 -19 -20 -21 -22 -21 -19 -19 -17 -16 -13 -15 -12 -14 -11 -11 -10 -9 -10 -14 -19 -15 -4 -8 -17 -14 -8 -2 0 2 2 3 4 5
0 -1 -5 -8 -14 -19 -21 -23 -23 -22 -23 -24 -25 -25 -23 -21 -20 -16 -15 -15 -16 -15 -12 -12 -12 -10 -10 -15 -18 -18 -12 -7 -17 -20 -15 -4 -0 0 1 2 3 5 5
0 -3 -10 -19 -28 -25 -22 -23 -25 -23 -23 -22 -21 -20 -19 -18 -16 -15 -16 -16 -15 -15 -13 -12 -12 -12 -15 -16 -17 -11 -8 -10 -14 -20 -13 -2 0 2 2 3 3 4 4
-4 -10 -23 -28 -24 -23 -23 -24 -24 -22 -20 -19 -18 -19 -18 -17 -18 -17 -14 -15 -14 -13 -13 -12 -12 -10 -9 -11 -8 -5 -5 -9 -16 -15 -7 -1 -0 0 1 1 2 3 3
-12 -25 -24 -22 -24 -24 -24 -23 -21 -19 -18 -18 -20 -19 -18 -18 -17 -16 -14 -12 -13 -12 -11 -10 -9 -9 -8 -8 -7 -5 -7 -6 -10 -4 -3 -2 -1 -1 -0 -1 0 1 1
-21 -21 -21 -23 -26 -24 -23 -23 -20 -18 -17 -18 -18 -18 -17 -16 -16 -13 -12 -13 -11 -10 -10 -9 -9 -9 -8 -10 -6 -8 -7 -11 -5 -4 -3 -3 -3 -2 -2 -2 -1 -1 -1

GFSMW_850_dewp_003.txt.gz
Dewpoint
-2 -4 -5 -5 -5 -4 -1 1 4 7 6 6 7 6 5 5 5 4 3 5 7 7 8 8 8 7 8 8 8 9 9 9 9 9 8 8 7 7 7 7 6 5 5
-1 -3 -4 -5 -5 -5 -4 -3 -1 2 5 7 7 6 6 6 7 7 8 9 9 9 9 9 9 9 9 10 10 10 10 10 10 9 9 9 9 7 6 5 5 5 6
1 -0 -3 -4 -4 -5 -4 -3 -3 -1 2 4 7 8 8 8 7 6 7 9 10 10 10 10 10 11 11 11 11 11 11 11 11 11 10 9 8 7 4 4 5 4 4
0 -0 -1 -2 -3 -3 -3 -3 -2 -1 1 4 6 7 8 8 8 9 9 9 10 11 10 10 10 10 11 11 11 12 11 11 11 10 11 10 10 9 8 6 7 7 6
-0 0 0 -0 -1 -1 -2 -2 -2 -3 -2 -1 2 4 5 6 6 7 8 9 9 9 9 9 10 10 10 10 11 11 10 11 11 11 10 11 11 10 10 9 7 8 7
-0 1 1 0 -0 -0 -1 -1 -1 -1 -1 -0 -1 -1 -0 0 1 2 5 7 8 9 10 10 10 10 11 11 11 11 11 11 11 11 11 10 10 11 10 10 9 9 7
-0 -0 -0 0 0 0 -0 -0 -1 -1 -1 -0 -0 0 0 0 0 1 0 0 -0 -0 1 7 9 8 8 10 10 11 11 10 11 11 11 11 11 10 11 10 10 9 9
0 0 1 1 2 1 1 1 0 0 0 -0 -0 0 0 0 1 2 3 3 2 1 1 -0 -1 0 3 5 7 8 9 9 10 10 10 10 10 11 10 10 10 9 8
0 1 1 2 2 2 2 2 2 2 1 0 0 0 0 -0 0 2 2 3 3 2 1 -0 -0 -0 -1 -1 -1 2 4 6 7 9 9 10 9 10 10 11 11 10 10
1 1 1 2 2 2 2 2 1 1 1 -0 -2 -2 -2 -1 0 2 1 0 -1 -3 -5 -6 -7 -7 -6 -4 -1 -0 -0 0 0 2 4 6 7 8 9 9 9 10 10
1 1 2 2 2 2 2 2 1 1 -3 -6 -5 -2 -1 -1 -0 1 1 -1 -2 -4 -5 -6 -6 -7 -7 -7 -5 -2 1 2 2 2 4 4 4 6 7 6 8 10 10
1 2 2 2 2 2 2 2 2 0 -6 -3 -1 -0 -0 -1 -1 -1 -2 -2 -3 -4 -5 -5 -4 -4 -4 -4 -4 -2 -2 4 4 5 5 6 6 5 5 6 7 9 9
2 2 2 0 1 1 1 0 -0 -3 -3 -1 0 1 1 -0 -1 -1 -1 -3 -5 -6 -6 -4 -2 -3 -2 -1 -1 -2 2 3 1 2 3 4 4 4 4 4 4 4 5
2 1 -0 0 1 1 1 0 -2 -5 -1 1 0 2 1 0 -1 -2 -4 -6 -7 -7 -7 -6 -5 -3 -1 -1 -0 1 0 -1 2 3 3 3 3 4 4 5 6 6 5
0 -0 -0 0 1 1 0 -2 -4 -3 -1 -0 0 -0 -1 -3 -5 -7 -9 -9 -9 -7 -6 -6 -5 -3 -4 0 -2 -3 -0 1 2 2 1 1 1 2 3 4 5 6 6
-0 -1 -0 -0 -0 -1 -4 -3 -2 -1 -1 -2 -4 -6 -7 -9 -15 -20 -22 -18 -14 -11 -10 -5 -4 -4 -2 -3 -4 -1 -0 -0 -1 -2 -9 -7 -2 1 3 4 5 6 6
-1 -0 -1 -2 -3 -3 -3 -2 -2 -3 -6 -8 -11 -14 -21 -32 -33 -31 -28 -24 -21 -19 -16 -8 -9 -7 -8 -6 -3 -1 -3 -4 -9 -11 -11 -7 -0 -4 -1 1 3 3 4
0 -1 -2 -1 -1 -2 -3 -4 -5 -9 -14 -24 -30 -32 -31 -30 -29 -27 -25 -23 -20 -17 -12 -13 -12 -8 -16 -9 -4 -6 -6 -14 -19 -21 -16 -16 -20 -13 -6 1 2 3 3
0 -1 -1 -0 -1 -2 -3 -6 -11 -22 -34 -33 -29 -28 -28 -28 -27 -25 -24 -21 -19 -18 -20 -16 -13 -14 -12 -7 -7 -8 -9 -18 -19 -8 -5 -15 -22 -18 -9 0 1 1 1
1 0 -0 2 1 -2 -8 -16 -29 -31 -28 -27 -27 -26 -25 -24 -23 -22 -21 -20 -19 -20 -18 -19 -17 -14 -10 -10 -10 -11 -22 -9 -10 -3 -7 -13 -16 -18 -8 -0 0 0 1
1 0 2 1 -3 -10 -22 -29 -26 -25 -26 -25 -24 -24 -23 -22 -22 -21 -20 -18 -17 -17 -16 -17 -13 -12 -13 -14 -21 -19 -8 -8 -4 -4 -4 -8 -17 -16 -3 -1 0 1 1
1 2 1 -4 -12 -23 -25 -24 -25 -25 -24 -23 -23 -22 -22 -22 -22 -20 -19 -18 -16 -15 -16 -13 -12 -13 -12 -14 -13 -8 -7 -6 -4 -3 -4 -8 -15 -5 -2 -1 -0 -0 0
2 1 -2 -11 -23 -25 -24 -27 -26 -23 -23 -22 -22 -22 -22 -21 -21 -19 -18 -16 -16 -15 -12 -11 -11 -10 -9 -11 -10 -7 -7 -5 -5 -5 -5 -7 -4 -3 -2 -2 -2 -2 -1
1 -2 -8 -26 -26 -25 -27 -26 -24 -22 -22 -21 -21 -21 -20 -20 -19 -18 -17 -16 -15 -12 -10 -9 -8 -8 -8 -8 -7 -7 -6 -6 -6 -6 -7 -4 -3 -3 -3 -4 -3 -3 -2
-1 -8 -24 -25 -25 -26 -26 -24 -22 -21 -21 -20 -20 -20 -19 -19 -19 -18 -17 -15 -14 -10 -8 -8 -8 -7 -7 -7 -7 -7 -6 -6 -6 -6 -5 -5 -5 -5 -4 -5 -4 -4 -3
-14 -23 -23 -25 -26 -25 -24 -23 -22 -21 -20 -20 -19 -18 -16 -16 -16 -15 -15 -15 -13 -9 -8 -8 -7 -7 -8 -7 -7 -7 -7 -7 -7 -6 -6 -6 -6 -6 -5 -4 -5 -4 -4

GFSMW_850_dewp_006.txt.gz
Dewpoint
-2 -4 -4 -4 -3 -4 -2 -0 2 4 7 7 7 6 6 6 6 6 6 8 9 10 10 11 10 10 11 11 11 10 10 10 10 10 10 9 9 9 9 8 8 8 7
-2 -3 -4 -3 -3 -3 -2 -3 -2 -0 1 4 7 7 7 7 7 8 9 9 9 10 10 11 11 11 11 11 11 11 11 11 11 11 10 9 9 9 9 8 6 3 4
-0 -2 -3 -3 -3 -4 -3 -3 -2 -1 1 3 5 7 8 8 9 10 10 10 10 10 10 11 11 11 11 10 10 11 11 11 10 10 10 10 9 9 9 9 7 7 7
1 0 -1 -2 -2 -2 -2 -2 -2 -0 1 3 4 6 8 9 8 8 7 8 8 8 9 9 9 9 10 10 10 10 10 11 10 10 10 10 10 10 9 9 9 9 9
1 1 0 -0 -1 -1 -1 -1 -1 -1 -1 -1 0 1 2 2 2 2 3 5 7 8 9 9 9 10 10 9 10 10 11 11 10 10 11 11 11 11 10 10 9 9 9
1 0 1 0 -0 -0 -0 -1 -1 -1 -0 -0 -0 -0 0 1 0 1 1 1 0 0 -0 1 3 5 5 5 7 8 9 9 11 11 11 11 11 11 10 10 10 10 8
-1 -0 -0 0 0 0 -0 0 1 1 1 0 0 0 0 1 1 2 2 2 2 2 1 1 0 -0 0 1 1 2 3 5 7 8 9 10 11 11 11 11 10 10 10
-0 -1 -0 1 1 1 1 1 1 1 0 -0 -1 -1 -1 -1 1 2 2 2 1 0 -2 -3 -5 -6 -7 -6 -4 -1 0 1 2 2 2 3 5 7 9 10 10 10 10
0 0 0 1 2 2 2 2 1 1 1 -2 -5 -5 -3 -3 -2 -1 -0 -0 -0 -1 -3 -4 -5 -6 -7 -8 -8 -8 -8 -5 -2 0 1 2 3 4 4 5 7 8 9
1 1 1 2 2 2 2 2 1 1 -1 -7 -7 -4 -3 -3 -3 -2 -2 -2 -2 -2 -3 -4 -5 -6 -6 -6 -6 -6 -6 -5 -5 0 3 3 4 5 5 6 6 7 9
1 2 2 2 2 2 2 2 2 1 -3 -8 -6 -4 -3 -2 -1 -1 -1 -1 -2 -3 -4 -6 -6 -5 -5 -5 -4 -2 -2 -1 1 3 2 1 2 3 4 4 4 5 6
2 2 2 2 3 3 2 1 0 -2 -6 -6 -4 -4 -5 -5 -3 -2 -2 -2 -4 -7 -9 -9 -9 -8 -7 -4 -2 -3 -0 1 -0 -1 -1 2 3 3 3 3 3 4 4
2 2 2 2 1 1 1 0 -1 -4 -5 -4 -4 -4 -3 -3 -3 -5 -7 -10 -14 -17 -18 -16 -14 -12 -8 -6 -5 0 1 -3 -2 -0 2 2 1 1 -1 -0 2 3 3
3 2 1 1 1 1 0 -0 -4 -4 -4 -4 -4 -4 -5 -7 -10 -15 -25 -34 -37 -37 -36 -34 -31 -20 -10 -10 -7 -6 -6 -3 -1 -1 -2 -3 -6 -9 -8 0 2 2 4
1 1 1 1 1 0 -1 -4 -3 -3 -3 -4 -6 -9 -13 -22 -35 -37 -35 -35 -35 -35 -34 -33 -30 -23 -17 -18 -11 -12 -9 -4 -2 -6 -8 -10 -13 -14 -2 -9 -9 -3 2
1 0 1 1 -0 -2 -3 -1 -1 -2 -4 -8 -13 -24 -37 -35 -33 -34 -35 -34 -33 -32 -32 -32 -31 -31 -27 -17 -19 -15 -6 -3 -6 -8 -10 -15 -19 -11 -15 -22 -15 -10 0
0 0 0 -0 -3 -1 -1 -1 -2 -4 -10 -19 -34 -35 -32 -33 -32 -31 -29 -28 -27 -26 -26 -26 -26 -26 -25 -21 -13 -7 -6 -10 -10 -10 -12 -19 -15 -2 -9 -19 -18 -15 -4
0 1 -0 -2 -1 0 0 -2 -5 -12 -25 -34 -32 -32 -31 -30 -28 -27 -26 -25 -25 -24 -24 -23 -23 -22 -22 -18 -10 -7 -11 -14 -18 -14 -19 -20 -3 -5 -9 -11 -9 -11 -3
1 -0 -1 -0 1 0 -0 -4 -12 -25 -32 -31 -31 -30 -28 -27 -26 -25 -25 -24 -23 -22 -21 -20 -20 -20 -15 -12 -12 -14 -19 -18 -13 -10 -11 -6 -4 -4 -3 -4 -5 -4 -2
1 0 0 1 1 -1 -4 -12 -25 -29 -30 -31 -29 -27 -25 -24 -24 -23 -23 -22 -21 -20 -19 -19 -18 -16 -13 -13 -12 -9 -8 -7 -7 -6 -6 -4 -4 -4 -4 -4 -4 -2 -2
1 0 1 1 1 -2 -10 -23 -28 -29 -29 -27 -26 -24 -23 -22 -22 -22 -22 -21 -20 -18 -17 -16 -16 -13 -11 -11 -9 -7 -7 -6 -5 -5 -6 -6 -8 -6 -6 -4 -3 -2 -3
1 1 1 1 1 -9 -23 -27 -28 -27 -25 -25 -24 -24 -23 -22 -21 -21 -21 -20 -19 -17 -15 -13 -11 -10 -9 -9 -8 -7 -6 -6 -6 -6 -7 -7 -7 -7 -4 -4 -4 -4 -4
1 1 0 -0 -5 -21 -24 -27 -26 -24 -24 -24 -24 -23 -23 -22 -21 -19 -19 -19 -17 -14 -12 -10 -8 -8 -9 -10 -8 -7 -7 -6 -7 -7 -6 -7 -6 -5 -5 -5 -5 -5 -4
0 -1 -1 -8 -24 -24 -26 -25 -24 -24 -23 -23 -23 -23 -21 -20 -19 -19 -18 -16 -14 -11 -9 -8 -8 -8 -8 -8 -8 -7 -8 -8 -7 -7 -8 -8 -7 -7 -7 -7 -6 -6 -5
-1 -3 -12 -24 -23 -25 -26 -24 -23 -23 -23 -22 -23 -22 -20 -18 -18 -19 -17 -14 -12 -9 -8 -9 -8 -8 -8 -8 -7 -8 -8 -7 -8 -9 -9 -10 -10 -9 -9 -8 -7 -6 -6
-6 -12 -23 -22 -24 -25 -25 -24 -23 -22 -22 -22 -22 -20 -17 -17 -16 -16 -17 -16 -13 -10 -9 -9 -9 -9 -9 -8 -9 -9 -8 -8 -9 -10 -10 -10 -10 -8 -8 -8 -7 -7 -6

GFSMW_850_dewp_009.txt.gz
Dewpoint
-1 -1 -1 -2 -2 -3 -3 -2 -1 -0 1 3 6 6 7 7 7 7 8 8 9 10 11 11 11 11 11 11 11 11 11 11 11 11 10 10 9 9 9 9 9 8 8
-1 -2 -1 -2 -3 -3 -2 -1 -1 -1 1 2 5 7 7 8 8 9 9 10 11 11 11 11 11 11 11 11 11 11 11 11 11 10 10 10 9 9 8 8 8 8 9
-1 -1 -2 -2 -2 -2 -2 -2 -1 0 1 3 6 7 8 9 10 10 9 8 8 9 9 9 9 9 10 10 10 10 11 10 10 10 11 10 10 9 8 8 8 8 8
1 -0 -1 -1 -1 -1 -1 -1 -2 -2 -1 0 2 4 5 4 4 3 3 5 6 7 6 6 6 7 8 8 8 9 9 10 11 10 11 11 11 10 10 10 9 9 9
0 0 -0 -0 -0 -1 -1 -1 -1 -1 -1 -1 -0 -0 -0 1 1 1 1 1 1 1 1 1 1 1 1 2 3 4 5 8 10 10 11 10 10 10 10 9 9 9 10
0 0 0 0 -0 -0 -0 -1 -1 -1 -0 -0 -0 -0 -0 -0 -0 -0 -0 -0 0 0 -0 -1 -1 -2 -3 -4 -4 -3 -0 1 2 3 5 6 6 8 9 10 10 10 10
-0 0 1 0 0 0 0 0 1 0 -0 -1 -2 -2 -2 -3 -3 -3 -3 -4 -4 -4 -3 -2 -3 -4 -5 -6 -6 -7 -8 -8 -6 -4 -1 1 2 3 3 5 6 8 7
-0 0 1 1 1 1 1 1 1 1 1 -2 -6 -6 -6 -5 -4 -3 -3 -3 -3 -3 -3 -3 -3 -4 -5 -6 -6 -6 -6 -6 -6 -6 -5 -2 2 3 4 5 7 7 7
0 1 1 1 1 1 1 2 1 1 0 -3 -7 -6 -5 -5 -5 -3 -2 -2 -2 -3 -3 -3 -5 -6 -7 -8 -7 -7 -6 -5 -3 -2 -1 2 3 2 2 3 4 6 7
1 1 2 2 2 2 2 2 2 2 0 -5 -7 -5 -4 -3 -3 -3 -4 -3 -4 -5 -6 -8 -11 -12 -12 -12 -10 -8 -7 -5 -1 1 -0 -1 -1 -0 2 3 3 3 4
1 2 2 2 2 2 2 2 2 1 -2 -6 -5 -4 -4 -4 -4 -4 -5 -7 -9 -13 -19 -26 -31 -31 -29 -24 -15 -11 -7 0 1 -2 -3 -2 1 3 1 0 0 -1 -0
1 2 2 2 2 2 2 2 0 -1 -4 -4 -4 -3 -3 -4 -6 -8 -12 -19 -31 -37 -37 -36 -36 -36 -34 -30 -23 -19 -8 -5 -10 -8 -3 -1 -1 -6 -9 -9 -7 -8 -2
1 2 2 2 3 3 2 1 -0 -3 -3 -2 -2 -3 -5 -8 -13 -23 -35 -36 -35 -35 -35 -35 -34 -34 -33 -33 -31 -24 -14 -13 -14 -9 -3 -2 -8 -11 -13 -15 -1 -1 -13
2 2 2 3 2 2 1 -0 -3 -2 -1 -1 -2 -5 -11 -20 -35 -35 -34 -34 -33 -32 -32 -31 -31 -31 -31 -31 -29 -26 -19 -15 -11 -6 -3 -6 -8 -10 -16 -6 1 -4 -14
2 2 2 2 2 1 -1 -3 -1 -1 -1 -2 -6 -14 -27 -35 -33 -33 -32 -32 -31 -30 -30 -30 -30 -31 -30 -30 -28 -24 -15 -6 -5 -7 -10 -12 -12 -13 -13 -3 -3 -4 -6
2 1 1 2 2 -1 -2 -1 -0 -0 -2 -7 -16 -29 -33 -32 -32 -31 -30 -30 -29 -29 -29 -29 -28 -29 -27 -26 -24 -16 -8 -6 -10 -12 -13 -16 -17 -17 -9 -7 -7 -4 -3
2 1 2 2 -1 -1 0 1 0 -1 -7 -18 -29 -31 -31 -31 -30 -29 -28 -27 -27 -27 -27 -27 -27 -26 -25 -23 -19 -12 -8 -11 -13 -13 -12 -14 -12 -9 -6 -5 -4 -4 -3
1 1 2 -0 -1 1 1 0 -1 -6 -18 -28 -30 -30 -29 -28 -27 -27 -26 -26 -26 -26 -26 -25 -24 -23 -22 -20 -15 -10 -10 -9 -9 -9 -9 -7 -6 -6 -5 -5 -5 -5 -6
1 1 0 -1 0 1 1 -1 -4 -18 -26 -29 -30 -29 -28 -27 -26 -26 -25 -25 -25 -25 -24 -23 -22 -21 -20 -16 -12 -8 -7 -8 -8 -8 -6 -6 -6 -6 -6 -6 -6 -6 -6
1 0 -0 0 1 0 -1 -7 -13 -23 -29 -30 -28 -27 -25 -25 -25 -24 -24 -23 -23 -23 -22 -21 -19 -18 -15 -13 -8 -8 -7 -7 -6 -6 -7 -8 -7 -7 -6 -6 -6 -4 -4
1 1 0 1 -0 -1 -4 -11 -16 -28 -29 -27 -26 -26 -24 -24 -24 -23 -22 -22 -22 -21 -20 -19 -19 -17 -12 -10 -8 -8 -7 -7 -6 -7 -7 -8 -7 -6 -7 -6 -6 -6 -5
1 0 0 0 -1 -3 -6 -12 -27 -27 -26 -26 -25 -24 -24 -23 -23 -22 -22 -22 -22 -20 -19 -17 -16 -12 -10 -10 -9 -8 -8 -7 -7 -7 -8 -8 -8 -8 -8 -8 -8 -7 -6
1 0 0 -1 -2 -7 -14 -25 -26 -25 -25 -24 -24 -24 -23 -23 -22 -21 -21 -21 -19 -16 -15 -11 -9 -9 -10 -11 -10 -8 -7 -8 -8 -8 -7 -8 -9 -8 -9 -9 -8 -7 -7
0 0 -1 -1 -7 -19 -24 -25 -24 -23 -24 -23 -23 -23 -22 -22 -21 -20 -20 -18 -17 -15 -11 -9 -9 -9 -10 -9 -10 -8 -8 -9 -9 -8 -9 -11 -11 -9 -10 -10 -9 -8 -8
0 -1 -4 -12 -22 -23 -25 -24 -23 -23 -22 -22 -22 -22 -22 -21 -20 -21 -20 -18 -16 -10 -9 -9 -9 -9 -9 -9 -8 -8 -9 -9 -7 -9 -11 -13 -10 -10 -10 -10 -9 -9 -9
-2 -6 -14 -22 -22 -24 -24 -23 -22 -22 -22 -22 -22 -21 -20 -19 -19 -20 -21 -20 -14 -10 -9 -9 -9 -10 -10 -9 -9 -9 -9 -8 -9 -10 -11 -11 -10 -10 -11 -11 -10 -9 -9

GFSMW_850_dewp_012.txt.gz
Dewpoint
0 0 -1 -1 -2 -2 -2 -3 -3 -3 -2 0 3 6 8 8 9 9 10 10 10 10 11 11 11 11 10 10 10 10 10 10 10 11 9 9 8 8 8 7 7 7 7
-0 -1 -2 -3 -3 -3 -3 -4 -4 -3 -1 1 4 6 7 9 10 10 10 9 9 8 8 8 8 8 8 9 9 9 10 10 10 10 10 10 10 9 9 9 9 8 8
-1 -0 -1 -1 -1 -3 -3 -3 -3 -4 -3 -2 2 6 8 8 7 5 4 4 5 5 6 5 5 5 4 4 5 5 4 8 9 10 9 10 10 10 9 9 8 8 9
1 0 -0 -1 -2 -1 -2 -2 -2 -2 -1 -1 -1 -0 0 0 1 1 2 2 1 1 2 1 1 0 -1 -2 -2 -2 -2 0 2 5 7 9 9 9 9 9 9 9 8
1 1 0 -0 -0 -0 -1 -1 -2 -1 -1 -1 -1 -0 -0 1 1 0 -1 -2 -3 -3 -3 -3 -3 -3 -3 -4 -5 -5 -6 -6 -6 -5 -3 -1 1 3 7 7 7 6 6
1 1 1 1 0 0 -0 -0 -0 -1 -1 -1 -2 -3 -4 -4 -5 -6 -6 -6 -5 -5 -5 -5 -4 -4 -4 -4 -5 -6 -6 -6 -6 -5 -4 -2 1 2 3 6 6 6 6
2 1 1 1 1 1 1 1 1 0 -0 -3 -5 -6 -6 -5 -5 -5 -4 -4 -4 -4 -4 -4 -5 -5 -6 -7 -8 -9 -9 -9 -7 -6 -4 -3 -0 2 3 1 4 5 5
2 1 1 1 1 1 1 1 1 1 0 -1 -4 -6 -5 -4 -4 -4 -4 -4 -4 -4 -5 -6 -8 -11 -15 -18 -21 -21 -17 -13 -10 -6 -2 0 -0 -1 -2 0 3 4 4
1 1 2 1 1 1 1 2 1 1 1 -2 -5 -6 -5 -4 -4 -3 -3 -4 -6 -8 -13 -20 -31 -36 -37 -37 -37 -35 -31 -22 -11 -2 0 -3 -5 -4 0 3 3 1 3
1 2 2 2 2 2 2 2 2 1 -0 -3 -5 -4 -3 -2 -2 -3 -5 -9 -15 -26 -34 -35 -35 -35 -35 -34 -34 -35 -33 -26 -11 -10 -13 -14 -9 -2 1 -5 -8 -11 -2
1 2 2 2 2 2 2 2 2 0 -2 -4 -3 -2 -1 -2 -5 -9 -15 -25 -34 -35 -34 -34 -33 -32 -31 -31 -32 -32 -31 -28 -23 -20 -17 -9 -2 -0 -3 -8 -8 -14 -7
1 2 2 2 2 2 2 2 1 -1 -3 -2 -1 -1 -2 -5 -10 -19 -30 -34 -33 -33 -32 -31 -30 -30 -30 -30 -30 -30 -27 -25 -22 -16 -9 -5 -5 -6 -7 -8 -10 -11 -1
1 2 2 3 3 3 2 1 -0 -3 -2 -1 -0 -1 -5 -12 -22 -31 -32 -32 -31 -31 -30 -30 -29 -29 -29 -29 -30 -29 -27 -21 -15 -7 -7 -8 -9 -11 -12 -12 -13 -5 -2
1 2 3 3 3 3 2 0 -2 -1 -0 0 -1 -6 -13 -22 -29 -32 -31 -31 -30 -29 -29 -29 -28 -28 -28 -29 -29 -28 -26 -20 -11 -8 -10 -13 -13 -12 -10 -8 -7 -3 -3
2 2 3 3 3 2 1 -2 -1 1 1 -1 -7 -13 -21 -28 -31 -31 -30 -29 -29 -28 -28 -27 -27 -27 -28 -28 -27 -25 -20 -15 -12 -13 -15 -15 -15 -10 -7 -6 -6 -5 -4
2 2 3 3 2 1 -1 -0 1 0 -1 -4 -9 -19 -26 -30 -30 -29 -29 -28 -27 -26 -26 -26 -26 -27 -28 -28 -25 -14 -10 -10 -10 -11 -12 -11 -10 -7 -6 -6 -6 -6 -6
1 2 2 2 2 -1 -0 1 0 -1 -3 -4 -11 -24 -30 -29 -29 -28 -27 -26 -25 -25 -25 -26 -26 -27 -26 -23 -20 -9 -8 -8 -9 -10 -9 -9 -7 -6 -7 -7 -7 -6 -6
2 1 2 2 -0 -0 1 1 -2 -3 -6 -11 -16 -29 -29 -28 -27 -26 -25 -25 -24 -24 -25 -25 -25 -24 -23 -20 -14 -8 -8 -9 -9 -9 -9 -6 -7 -9 -7 -6 -6 -6 -9
1 2 2 0 -1 0 -0 -1 -2 -9 -11 -17 -26 -29 -27 -26 -25 -25 -24 -24 -23 -24 -24 -24 -23 -22 -22 -17 -9 -8 -8 -9 -8 -9 -8 -7 -8 -8 -7 -7 -7 -8 -8
1 2 0 -0 -0 0 0 -2 -5 -9 -19 -27 -28 -27 -25 -25 -24 -24 -23 -23 -22 -23 -24 -24 -22 -21 -18 -15 -9 -8 -8 -8 -9 -8 -8 -9 -8 -8 -7 -8 -7 -7 -9
1 0 -0 -0 0 0 -1 -3 -13 -22 -24 -27 -26 -25 -24 -24 -23 -22 -22 -22 -22 -22 -23 -23 -23 -20 -13 -11 -9 -9 -9 -8 -7 -8 -9 -10 -8 -7 -9 -9 -8 -9 -9
1 1 0 0 -0 -1 -4 -16 -21 -24 -26 -26 -25 -24 -23 -22 -21 -21 -21 -21 -22 -22 -23 -22 -19 -13 -10 -10 -9 -9 -9 -8 -8 -9 -10 -9 -8 -9 -10 -9 -9 -9 -8
1 0 0 -0 -1 -6 -11 -22 -24 -26 -25 -25 -23 -22 -21 -21 -21 -21 -21 -21 -22 -21 -20 -13 -10 -9 -9 -10 -11 -9 -8 -8 -9 -10 -8 -9 -9 -11 -12 -10 -10 -10 -10
1 -0 -1 -2 -6 -12 -21 -23 -25 -25 -24 -22 -21 -20 -20 -20 -20 -21 -21 -21 -20 -17 -12 -9 -9 -10 -10 -10 -11 -9 -9 -9 -10 -8 -8 -10 -13 -14 -11 -12 -12 -12 -10
0 -0 -2 -5 -11 -20 -23 -24 -24 -23 -22 -21 -20 -19 -19 -20 -20 -20 -20 -19 -16 -11 -9 -10 -10 -10 -10 -10 -9 -9 -9 -9 -9 -9 -11 -13 -13 -12 -11 -11 -11 -12 -10
-2 -2 -5 -8 -21 -22 -23 -23 -22 -21 -20 -20 -18 -19 -19 -20 -20 -20 -20 -17 -14 -10 -10 -10 -10 -10 -10 -10 -9 -10 -10 -9 -11 -12 -12 -11 -11 -12 -12 -12 -12 -11 -11

GFSMW_850_dewp_015.txt.gz
Dewpoint
1 1 -0 -1 -2 -2 -2 -3 -3 -2 1 1 4 6 7 8 8 9 9 9 9 9 8 8 7 7 7 7 7 7 7 7 7 8 9 9 8 8 8 8 9 8 8
0 -0 -1 -1 -3 -3 -4 -5 -5 -4 -3 -1 3 6 8 9 8 7 6 5 4 4 3 3 2 1 1 -0 -1 -1 -2 -2 -1 6 7 8 7 8 9 8 7 9 7
-0 0 -0 -1 -1 -3 -4 -4 -4 -4 -3 -2 0 4 4 3 1 1 1 1 1 1 1 1 -0 -2 -3 -3 -4 -4 -5 -5 -5 -5 3 6 6 6 4 6 6 6 8
1 0 -1 -1 -2 -2 -2 -2 -3 -3 -2 -1 -1 -1 -0 0 2 2 1 -1 -4 -5 -5 -5 -5 -5 -5 -5 -5 -5 -5 -6 -6 -6 -5 -5 -3 3 2 0 2 3 5
1 0 -0 -0 -1 -0 -1 -1 -1 -1 -1 -1 -2 -2 -3 -3 -4 -5 -5 -5 -4 -4 -4 -4 -4 -5 -6 -7 -9 -10 -10 -11 -10 -8 -5 -5 -3 1 3 3 2 3 3
1 1 1 1 0 0 0 -0 -1 -1 -2 -3 -5 -5 -6 -6 -5 -5 -4 -3 -3 -2 -3 -4 -6 -8 -12 -17 -24 -31 -34 -32 -25 -17 -9 -1 2 3 3 2 1 2 1
1 1 1 1 1 1 1 1 0 -0 -1 -1 -3 -5 -5 -5 -4 -3 -2 -2 -2 -2 -4 -8 -13 -21 -32 -35 -35 -34 -34 -34 -33 -27 -14 -4 -0 -1 -2 -0 1 2 2
2 1 1 1 1 1 1 1 1 1 0 -1 -3 -5 -4 -3 -2 -2 -1 -3 -5 -9 -15 -24 -32 -33 -33 -32 -31 -30 -31 -31 -31 -27 -19 -18 -21 -19 -9 -1 1 1 1
2 2 2 2 2 2 2 1 1 1 0 -2 -4 -4 -3 -1 -0 -1 -3 -6 -12 -18 -26 -32 -32 -32 -30 -29 -29 -29 -29 -29 -29 -29 -29 -26 -21 -11 -3 -0 0 -2 1
2 2 2 2 2 2 2 2 1 1 -1 -3 -3 -2 -0 -1 -2 -4 -7 -11 -19 -30 -32 -31 -30 -29 -29 -28 -28 -27 -27 -28 -28 -25 -25 -20 -15 -10 -4 -3 -3 -1 -4
2 2 2 2 2 2 2 2 1 -0 -2 -3 -1 -0 -1 -2 -4 -8 -13 -22 -30 -31 -30 -30 -29 -28 -27 -26 -26 -26 -27 -27 -25 -22 -15 -8 -6 -12 -14 -12 -9 -9 -9
2 2 2 2 3 2 2 2 0 -2 -2 -1 0 -0 -2 -5 -9 -14 -23 -30 -31 -30 -29 -28 -28 -26 -25 -24 -25 -26 -26 -23 -19 -13 -7 -8 -11 -12 -11 -11 -9 -7 -6
2 2 3 3 3 3 2 1 -1 -2 -0 1 0 -2 -4 -7 -13 -21 -29 -30 -29 -29 -28 -26 -25 -24 -23 -24 -25 -26 -25 -21 -16 -10 -9 -12 -11 -10 -9 -7 -7 -6 -6
1 2 3 3 3 3 2 0 -2 -0 1 0 -1 -3 -5 -12 -22 -28 -30 -29 -28 -27 -25 -23 -23 -23 -23 -25 -26 -25 -21 -18 -14 -11 -11 -10 -9 -8 -7 -7 -6 -6 -6
1 2 3 3 3 2 1 -1 -0 1 0 -1 -3 -5 -10 -20 -29 -30 -28 -27 -26 -24 -22 -22 -22 -23 -24 -26 -25 -18 -16 -14 -12 -12 -10 -9 -8 -7 -7 -6 -7 -6 -7
1 2 3 3 3 2 -0 -0 1 1 -1 -4 -7 -12 -12 -25 -29 -28 -27 -25 -23 -21 -20 -20 -22 -23 -25 -25 -25 -22 -11 -8 -8 -9 -9 -8 -8 -7 -7 -7 -7 -6 -6
1 2 3 3 3 1 -1 1 1 -0 -3 -8 -14 -18 -20 -28 -28 -26 -25 -22 -20 -19 -20 -21 -22 -24 -24 -24 -23 -9 -8 -8 -8 -8 -8 -9 -8 -7 -8 -8 -7 -7 -7
1 2 2 3 1 -1 -0 0 0 -2 -6 -9 -16 -24 -27 -28 -26 -24 -21 -19 -19 -20 -21 -22 -23 -24 -24 -22 -15 -8 -8 -9 -9 -8 -8 -8 -7 -9 -8 -8 -7 -10 -13
1 2 2 2 -0 -1 0 0 -2 -3 -6 -15 -22 -27 -27 -25 -24 -21 -19 -19 -19 -20 -21 -22 -23 -23 -23 -18 -11 -8 -9 -10 -9 -9 -8 -7 -9 -9 -8 -7 -8 -10 -10
1 2 2 0 -1 -0 0 -2 -3 -6 -12 -21 -26 -26 -25 -23 -21 -19 -18 -19 -20 -20 -21 -22 -22 -21 -20 -16 -9 -9 -9 -9 -9 -8 -8 -9 -10 -8 -8 -8 -9 -10 -10
1 1 0 -1 -0 0 -2 -3 -5 -10 -20 -26 -26 -24 -23 -21 -19 -18 -18 -19 -20 -21 -22 -22 -21 -19 -14 -11 -9 -9 -9 -9 -8 -8 -9 -10 -10 -7 -8 -10 -11 -10 -9
1 0 -0 -0 -0 -1 -3 -6 -11 -18 -25 -25 -24 -22 -21 -19 -17 -18 -19 -20 -21 -21 -21 -21 -18 -14 -11 -10 -10 -9 -9 -9 -8 -9 -10 -9 -8 -9 -10 -11 -10 -10 -10
1 -0 -0 -0 -0 -3 -7 -11 -19 -24 -24 -23 -22 -21 -19 -17 -17 -18 -19 -20 -21 -20 -20 -16 -11 -11 -11 -10 -10 -9 -9 -9 -9 -10 -9 -9 -12 -12 -11 -11 -11 -10 -11
1 0 -1 -1 -3 -6 -11 -21 -23 -23 -22 -21 -21 -18 -15 -16 -18 -19 -20 -21 -20 -19 -14 -11 -10 -10 -11 -11 -11 -9 -9 -10 -9 -9 -11 -13 -13 -11 -11 -12 -12 -11 -11
0 -0 -1 -3 -7 -14 -21 -22 -23 -22 -21 -21 -17 -15 -16 -18 -19 -20 -20 -20 -18 -13 -10 -10 -10 -10 -10 -11 -9 -10 -10 -9 -9 -11 -12 -14 -11 -12 -13 -12 -12 -12 -11
-0 -2 -4 -6 -14 -21 -22 -22 -21 -21 -19 -15 -15 -17 -18 -19 -20 -21 -22 -19 -16 -12 -11 -10 -10 -10 -10 -10 -10 -10 -10 -9 -11 -12 -12 -13 -12 -12 -12 -12 -12 -12 -11

GFSMW_850_dewp_018.txt.gz
Dewpoint
1 1 1 1 0 -1 -1 -1 1 2 4 7 8 8 8 9 9 8 8 7 6 4 3 1 0 -0 -0 -1 -1 0 -0 1 3 2 2 3 5 6 5 8 9 6 7
2 1 0 -1 -2 -3 -4 -4 -3 -2 1 4 6 7 8 7 6 3 1 1 1 -0 -2 -3 -5 -5 -5 -5 -5 -4 -4 -0 0 1 1 0 0 0 3 1 -0 2 2
1 2 0 -2 -2 -3 -3 -3 -3 -3 -2 1 2 3 2 1 1 1 -0 -2 -4 -5 -4 -4 -3 -4 -4 -5 -6 -6 -4 -1 -2 -1 -0 0 1 1 -1 -1 -1 -0 2
2 2 2 -1 -1 -2 -2 -2 -2 -2 -1 -1 -1 -1 -1 -2 -3 -4 -4 -4 -3 -3 -2 -3 -4 -6 -9 -12 -16 -18 -18 -5 -4 -4 -3 -1 -1 -1 -0 -2 -1 -1 1
2 3 3 0 -0 -1 -1 -1 -2 -2 -2 -3 -4 -5 -5 -5 -5 -4 -4 -2 -2 -1 -3 -5 -8 -12 -17 -25 -31 -32 -28 -8 -6 -5 -4 -2 -2 -2 -1 -0 -4 -5 -5
2 3 1 0 -0 -0 -1 -1 -1 -2 -3 -3 -4 -5 -5 -5 -4 -3 -1 -1 -2 -5 -6 -8 -13 -21 -29 -31 -31 -30 -28 -27 -27 -14 -5 -2 -2 -3 -4 -7 -7 -6 -7
3 3 3 1 1 0 0 -0 -1 -1 -1 -2 -3 -4 -4 -3 -1 -1 -2 -3 -4 -5 -7 -11 -21 -29 -30 -30 -29 -28 -27 -25 -26 -21 -5 -5 -8 -8 -9 -8 -5 -4 -4
3 3 3 2 1 1 1 0 0 0 -1 -2 -2 -3 -3 -1 -1 -2 -2 -4 -6 -9 -14 -24 -30 -30 -29 -28 -27 -26 -25 -16 -12 -12 -8 -7 -10 -8 -6 -4 -3 -2 -1
3 3 3 3 2 1 1 1 1 0 -1 -2 -3 -2 -1 -1 -1 -2 -4 -6 -9 -16 -26 -30 -30 -29 -28 -27 -25 -23 -18 -17 -13 -13 -10 -10 -9 -7 -6 -5 -5 -4 -5
3 3 3 3 2 2 1 1 0 -0 -2 -3 -2 -1 -0 -0 -2 -4 -7 -10 -18 -25 -29 -30 -29 -27 -26 -24 -22 -19 -18 -15 -14 -12 -11 -10 -9 -7 -8 -9 -10 -8 -8
3 3 3 3 2 2 1 1 0 -1 -2 -2 -0 0 -1 -2 -4 -7 -10 -18 -24 -29 -29 -28 -27 -24 -22 -21 -20 -18 -17 -14 -13 -11 -11 -10 -8 -9 -10 -11 -11 -10 -9
3 3 3 3 2 2 2 1 -0 -2 -2 -0 0 -1 -2 -4 -6 -11 -15 -24 -30 -29 -27 -25 -23 -21 -20 -21 -21 -18 -15 -13 -12 -11 -10 -10 -10 -10 -10 -10 -10 -9 -8
3 3 4 3 2 2 2 1 -1 -2 -0 0 -1 -3 -4 -5 -8 -16 -28 -29 -28 -26 -24 -21 -20 -20 -20 -21 -19 -16 -13 -12 -11 -11 -10 -10 -10 -10 -10 -9 -9 -8 -7
3 3 4 3 2 2 1 0 -1 -0 0 -1 -3 -5 -6 -9 -15 -26 -29 -27 -26 -23 -20 -19 -19 -19 -20 -21 -17 -17 -12 -11 -10 -10 -9 -9 -10 -9 -9 -8 -8 -7 -7
3 3 4 3 2 2 1 -1 -1 0 -0 -2 -5 -7 -9 -11 -20 -28 -27 -25 -22 -19 -18 -18 -19 -19 -20 -18 -23 -20 -11 -10 -9 -9 -10 -10 -9 -8 -8 -7 -7 -7 -8
2 3 4 3 1 1 1 -1 -0 0 -1 -4 -6 -7 -11 -17 -27 -26 -25 -22 -19 -18 -17 -18 -19 -19 -19 -22 -23 -19 -9 -9 -9 -10 -10 -10 -10 -10 -8 -8 -8 -8 -6
2 3 3 2 2 2 0 -1 0 -0 -2 -4 -6 -11 -16 -26 -26 -25 -21 -18 -17 -17 -17 -17 -18 -19 -19 -21 -21 -9 -8 -9 -10 -10 -10 -10 -11 -9 -8 -9 -9 -8 -7
1 2 3 3 3 1 -1 -0 -0 -1 -3 -5 -9 -15 -26 -26 -24 -22 -19 -17 -17 -17 -16 -16 -18 -18 -16 -16 -10 -9 -9 -10 -10 -10 -10 -10 -9 -8 -8 -9 -8 -7 -8
1 2 2 3 2 -0 -1 -0 -1 -3 -5 -6 -15 -25 -26 -24 -22 -19 -17 -16 -17 -17 -17 -16 -15 -15 -15 -12 -10 -9 -9 -10 -10 -10 -10 -9 -9 -9 -9 -8 -7 -8 -9
1 1 2 2 0 -1 -1 -0 -3 -6 -6 -13 -23 -26 -24 -22 -20 -18 -16 -17 -17 -17 -17 -16 -15 -14 -14 -11 -9 -9 -9 -10 -10 -10 -9 -9 -9 -9 -8 -7 -10 -9 -11
1 2 2 0 -1 -1 -1 -2 -5 -6 -11 -20 -25 -24 -22 -21 -18 -16 -17 -17 -17 -17 -16 -15 -15 -13 -12 -10 -10 -9 -9 -10 -9 -9 -9 -10 -9 -8 -10 -11 -10 -10 -10
1 1 -0 -1 -1 -1 -2 -4 -7 -11 -19 -24 -23 -22 -21 -17 -16 -17 -18 -18 -16 -16 -16 -15 -13 -12 -11 -11 -10 -9 -9 -9 -8 -9 -9 -9 -8 -11 -11 -11 -10 -11 -11
0 0 -0 -1 -1 -1 -5 -8 -10 -17 -24 -23 -22 -20 -16 -15 -17 -17 -18 -16 -16 -15 -14 -13 -12 -11 -11 -11 -10 -10 -9 -9 -9 -10 -9 -9 -11 -12 -12 -11 -11 -11 -12
0 0 -0 -0 -1 -4 -9 -10 -14 -23 -23 -22 -20 -15 -15 -17 -18 -18 -17 -17 -15 -14 -12 -11 -11 -11 -11 -11 -11 -10 -10 -10 -11 -9 -9 -12 -12 -12 -12 -12 -12 -12 -11
0 0 -1 -1 -4 -8 -10 -15 -23 -22 -21 -19 -15 -15 -16 -17 -17 -18 -17 -16 -15 -13 -10 -10 -10 -10 -10 -11 -10 -9 -10 -10 -9 -9 -12 -13 -13 -12 -12 -12 -12 -12 -11
0 -1 -1 -5 -6 -11 -19 -22 -22 -21 -19 -16 -15 -16 -17 -17 -19 -18 -16 -13 -11 -10 -10 -11 -10 -10 -10 -10 -10 -10 -10 -9 -10 -12 -12 -12 -12 -12 -12 -12 -12 -12 -12

GFSMW_850_dewp_021.txt.gz
Dewpoint
2 3 4 4 4 6 8 9 10 10 11 11 11 10 8 7 8 7 6 3 1 -0 -3 -5 -5 -4 -3 -1 -2 -2 -2 -2 -0 0 -0 -1 -1 0 -0 3 6 6 3
2 3 3 2 3 3 4 6 9 10 11 9 8 7 6 5 3 1 0 -2 -5 -5 -4 -3 -2 -2 -3 -4 -5 -5 -5 -4 -4 -2 -3 -2 -3 -1 -2 -6 -5 -4 -2
1 2 3 3 3 1 -1 -1 -1 0 1 3 3 2 2 3 2 -1 -5 -5 -4 -3 -2 -2 -4 -6 -7 -8 -11 -12 -13 -8 -9 -5 -4 -4 -4 -2 -4 -5 -4 -2 -3
1 2 3 4 3 0 -1 -1 -2 -1 1 3 3 4 1 -3 -5 -5 -4 -3 -1 -2 -4 -5 -6 -8 -11 -15 -22 -20 -21 -9 -6 -9 -8 -8 -4 -2 -2 -5 -6 -6 -7
1 2 3 4 3 1 -0 -1 -2 -2 -2 -2 -4 -4 -5 -5 -4 -3 -1 -2 -3 -4 -3 -6 -8 -11 -16 -24 -27 -26 -25 -19 -8 -12 -10 -7 -5 -4 -6 -6 -8 -8 -10
2 3 4 4 2 0 -0 -1 -2 -3 -3 -3 -4 -4 -4 -3 -2 -1 -2 -2 -3 -4 -4 -7 -11 -18 -24 -27 -27 -26 -26 -25 -19 -16 -14 -8 -4 -5 -8 -8 -8 -7 -6
2 3 4 4 4 3 0 -1 -2 -1 -2 -2 -2 -3 -2 -2 -1 -1 -1 -1 -3 -4 -5 -8 -15 -23 -27 -28 -27 -26 -25 -22 -16 -17 -10 -12 -9 -7 -9 -8 -7 -6 -5
3 3 4 4 5 4 2 0 -0 -1 -1 -2 -2 -2 -2 -1 -1 -0 -1 -2 -4 -6 -8 -13 -20 -27 -28 -26 -24 -23 -19 -14 -14 -12 -11 -11 -10 -10 -9 -8 -6 -5 -6
3 3 4 4 4 4 3 1 0 -0 -1 -2 -2 -2 -1 -0 -0 -1 -2 -4 -6 -9 -14 -21 -27 -28 -25 -22 -19 -18 -16 -15 -15 -14 -13 -12 -11 -10 -10 -7 -7 -8 -8
3 3 4 4 4 3 2 1 0 -0 -1 -2 -2 -1 -0 -1 -2 -3 -5 -7 -10 -15 -24 -28 -28 -26 -23 -19 -18 -18 -17 -15 -15 -13 -12 -11 -11 -10 -10 -8 -9 -10 -10
3 3 3 4 3 2 1 1 0 -1 -2 -2 -0 -0 -1 -2 -3 -5 -7 -11 -20 -27 -28 -27 -26 -22 -19 -18 -17 -17 -16 -15 -14 -13 -12 -11 -11 -10 -10 -10 -10 -10 -9
3 3 3 4 3 2 1 -0 -0 -1 -2 -1 -0 -1 -2 -3 -5 -8 -12 -22 -27 -28 -27 -25 -20 -18 -17 -17 -16 -16 -15 -15 -13 -12 -11 -11 -10 -10 -9 -10 -10 -9 -9
3 3 3 3 2 1 -0 -1 -1 -2 -1 -0 -1 -2 -3 -5 -7 -9 -17 -26 -28 -26 -24 -19 -17 -17 -17 -16 -15 -15 -15 -13 -12 -11 -11 -10 -10 -9 -10 -10 -9 -9 -8
3 3 3 3 2 1 -1 -2 -3 -2 -0 -1 -2 -3 -5 -6 -9 -14 -23 -27 -26 -23 -18 -17 -16 -16 -15 -15 -15 -16 -15 -12 -11 -10 -10 -10 -10 -10 -10 -9 -8 -7 -6
3 3 3 3 2 0 -2 -4 -3 -1 -0 -1 -2 -3 -5 -8 -14 -24 -27 -26 -22 -18 -16 -15 -14 -15 -15 -16 -15 -14 -11 -10 -9 -9 -10 -10 -10 -10 -9 -9 -8 -7 -7
3 3 3 3 2 -0 -2 -4 -3 -1 -1 -1 -2 -4 -8 -13 -23 -26 -26 -22 -19 -16 -15 -14 -14 -15 -15 -15 -12 -10 -10 -9 -9 -9 -10 -10 -11 -11 -10 -9 -9 -7 -7
2 3 4 3 2 -1 -3 -4 -3 -1 -1 -2 -4 -7 -12 -20 -26 -26 -23 -19 -16 -15 -14 -14 -15 -15 -15 -14 -12 -10 -9 -9 -9 -10 -10 -11 -11 -10 -10 -9 -8 -8 -9
2 3 3 3 1 -1 -3 -5 -1 -1 -2 -4 -7 -11 -16 -25 -25 -23 -19 -17 -15 -14 -15 -15 -15 -15 -15 -14 -12 -10 -9 -9 -10 -10 -10 -10 -10 -10 -8 -8 -7 -9 -9
3 3 3 1 -1 -2 -2 -1 -1 -2 -4 -6 -10 -15 -24 -25 -23 -20 -18 -15 -15 -15 -16 -16 -15 -15 -15 -14 -11 -9 -9 -9 -10 -10 -10 -9 -8 -9 -8 -8 -8 -9 -10
2 2 1 1 -1 -3 -2 -1 -1 -4 -6 -9 -11 -21 -25 -22 -21 -17 -15 -15 -16 -16 -16 -15 -16 -16 -15 -12 -10 -9 -9 -9 -9 -9 -9 -9 -9 -9 -8 -8 -9 -9 -11
0 1 1 -1 -3 -2 -1 -1 -3 -6 -9 -9 -15 -24 -22 -21 -17 -15 -15 -16 -16 -15 -15 -16 -16 -14 -13 -12 -11 -10 -9 -9 -8 -9 -9 -9 -10 -8 -9 -11 -10 -11 -9
0 1 -1 -2 -2 -1 -1 -3 -7 -9 -7 -12 -23 -22 -21 -16 -15 -15 -16 -16 -15 -16 -16 -16 -15 -13 -12 -11 -11 -10 -9 -9 -8 -9 -9 -10 -8 -10 -11 -11 -12 -10 -11
-0 -1 -2 -2 -1 -1 -2 -7 -7 -6 -12 -23 -22 -21 -17 -15 -15 -16 -15 -15 -16 -16 -16 -14 -12 -11 -11 -11 -10 -10 -10 -9 -9 -9 -10 -9 -11 -12 -12 -12 -11 -11 -12
-1 -2 -3 -2 -1 -1 -3 -6 -6 -11 -23 -22 -21 -17 -15 -15 -15 -14 -15 -16 -16 -15 -13 -12 -10 -10 -10 -10 -10 -10 -9 -9 -10 -9 -9 -12 -12 -12 -12 -12 -12 -12 -11
-1 -1 -2 -2 -2 -1 -5 -5 -14 -22 -22 -21 -18 -15 -15 -15 -14 -15 -16 -15 -14 -12 -11 -10 -10 -10 -10 -11 -10 -10 -10 -10 -10 -10 -11 -12 -13 -12 -12 -12 -12 -12 -11
-1 -1 -1 -2 -2 -5 -7 -17 -22 -22 -21 -19 -15 -14 -15 -14 -15 -16 -15 -15 -13 -12 -12 -11 -10 -10 -10 -10 -10 -10 -10 -10 -10 -11 -12 -12 -12 -12 -12 -12 -12 -12 -12

GFSMW_850_dewp_024.txt.gz
Dewpoint
2 2 4 5 8 9 9 7 7 8 10 11 11 11 11 9 8 7 5 1 -1 -5 -5 -3 -2 -2 -4 -5 -6 -7 -8 -9 -12 -14 -11 -13 -6 -8 -7 -1 -7 -11 -13
2 3 4 4 6 9 10 10 11 11 11 11 10 8 7 6 3 0 -2 -5 -5 -3 -2 -2 -4 -5 -5 -6 -8 -12 -14 -18 -18 -8 -11 -8 -9 -4 -16 -14 -18 -6 -4
2 3 3 3 4 7 7 9 10 10 10 8 7 5 2 1 -2 -5 -5 -4 -2 -2 -3 -3 -3 -4 -6 -8 -13 -17 -22 -22 -22 -19 -11 -6 -5 -9 -9 -11 -9 -5 -15
2 3 3 4 3 3 3 3 3 3 3 3 2 2 0 -3 -4 -4 -2 -2 -2 -2 -2 -3 -4 -6 -8 -12 -17 -22 -24 -25 -24 -24 -24 -20 -13 -5 -4 -6 -12 -13 -15
2 3 4 4 4 3 2 2 2 2 3 3 2 -3 -4 -4 -3 -2 -2 -2 -2 -2 -2 -3 -5 -7 -10 -15 -21 -23 -25 -26 -24 -21 -19 -21 -18 -17 -7 -5 -8 -9 -10
2 3 4 5 4 2 1 0 -1 -2 -2 -3 -3 -3 -3 -2 -1 -2 -2 -2 -2 -2 -3 -4 -6 -10 -15 -20 -24 -25 -26 -26 -23 -20 -18 -15 -9 -12 -10 -7 -8 -9 -9
2 4 4 5 3 2 0 -1 -2 -3 -3 -3 -3 -3 -2 -1 -1 -1 -1 -1 -1 -2 -3 -6 -9 -14 -21 -25 -26 -26 -25 -22 -20 -18 -17 -15 -13 -14 -9 -9 -9 -8 -8
3 4 5 4 3 2 1 -1 -1 -2 -2 -2 -2 -2 -1 -1 -0 -0 -0 -1 -2 -4 -6 -9 -15 -23 -26 -27 -26 -23 -21 -19 -18 -17 -17 -15 -14 -12 -11 -10 -8 -9 -7
3 4 4 5 4 2 1 0 -1 -1 -2 -2 -2 -1 -1 -0 -0 -0 -1 -3 -5 -8 -12 -19 -23 -26 -26 -24 -20 -18 -18 -18 -19 -17 -16 -16 -14 -12 -11 -10 -10 -8 -8
3 3 4 5 4 3 2 1 -0 -1 -1 -2 -1 -1 -0 -0 -1 -1 -3 -5 -9 -14 -20 -24 -25 -25 -22 -19 -18 -17 -18 -19 -17 -16 -18 -15 -12 -11 -11 -10 -10 -9 -9
3 3 4 4 4 3 2 1 0 -1 -1 -2 -1 -1 -0 -1 -2 -3 -4 -6 -13 -20 -24 -25 -26 -22 -19 -17 -17 -18 -19 -18 -16 -18 -18 -13 -12 -11 -10 -10 -9 -9 -9
3 4 4 4 3 2 1 1 -0 -1 -2 -1 -1 -0 -1 -2 -3 -4 -6 -10 -17 -23 -26 -25 -22 -19 -17 -17 -18 -18 -17 -16 -17 -19 -16 -13 -10 -10 -10 -9 -10 -9 -9
3 3 4 4 3 2 1 -0 -1 -1 -1 -1 -1 -1 -1 -3 -4 -6 -9 -16 -23 -26 -25 -21 -19 -17 -17 -18 -17 -17 -16 -16 -16 -17 -15 -12 -11 -9 -9 -10 -10 -10 -9
3 3 4 4 2 1 -0 -1 -2 -2 -1 -1 -1 -1 -2 -3 -5 -8 -16 -24 -26 -24 -21 -19 -16 -16 -17 -16 -16 -15 -14 -13 -12 -13 -14 -10 -9 -9 -10 -10 -9 -8 -7
3 3 4 3 2 1 -1 -2 -2 -2 -1 -1 -1 -2 -2 -4 -8 -15 -24 -26 -23 -21 -18 -16 -16 -16 -16 -15 -14 -12 -11 -11 -11 -12 -11 -9 -9 -9 -9 -9 -8 -8 -8
3 3 4 3 2 0 -1 -3 -3 -2 -2 -1 -1 -2 -4 -7 -12 -22 -25 -23 -21 -18 -16 -16 -16 -16 -16 -16 -12 -11 -11 -10 -10 -10 -9 -9 -10 -10 -9 -9 -9 -8 -7
3 3 4 3 2 0 -1 -3 -3 -2 -1 -1 -2 -4 -6 -10 -20 -25 -23 -21 -17 -16 -16 -17 -18 -17 -18 -17 -12 -11 -10 -9 -10 -9 -9 -9 -10 -10 -10 -9 -8 -7 -8
3 3 4 3 2 0 -2 -3 -3 -2 -2 -2 -4 -5 -8 -17 -24 -23 -21 -17 -15 -16 -17 -19 -19 -19 -18 -15 -13 -11 -10 -9 -9 -9 -9 -9 -9 -9 -9 -8 -8 -8 -10
3 3 4 3 1 -0 -2 -3 -3 -2 -2 -4 -6 -9 -16 -24 -23 -21 -16 -15 -16 -18 -19 -19 -20 -18 -17 -16 -12 -10 -10 -10 -9 -9 -8 -9 -9 -9 -8 -8 -8 -9 -9
3 3 3 3 1 -1 -2 -2 -2 -2 -4 -6 -8 -13 -23 -23 -21 -16 -15 -16 -17 -18 -19 -19 -19 -18 -16 -15 -11 -10 -10 -9 -9 -8 -9 -9 -9 -10 -8 -8 -9 -9 -11
3 2 1 0 -1 -2 -2 -2 -2 -4 -6 -7 -11 -22 -23 -21 -16 -15 -15 -16 -18 -18 -19 -19 -19 -17 -15 -12 -11 -10 -9 -9 -9 -9 -10 -10 -10 -8 -9 -10 -10 -11 -9
0 0 -0 -1 -2 -3 -2 -2 -3 -6 -6 -9 -22 -23 -21 -17 -14 -15 -15 -18 -18 -18 -18 -17 -18 -15 -13 -11 -10 -10 -10 -9 -9 -9 -10 -11 -9 -10 -10 -11 -12 -10 -11
-1 -1 -1 -2 -2 -2 -2 -2 -5 -6 -8 -22 -23 -21 -17 -14 -14 -15 -17 -17 -17 -17 -17 -15 -13 -12 -11 -11 -10 -10 -9 -10 -10 -10 -10 -9 -10 -11 -12 -12 -11 -11 -13
-1 -2 -2 -2 -1 -1 -2 -5 -7 -8 -21 -23 -21 -18 -14 -14 -14 -16 -17 -17 -16 -15 -14 -12 -11 -11 -11 -11 -11 -9 -10 -9 -10 -10 -9 -11 -12 -13 -12 -13 -13 -13 -12
-2 -2 -2 -2 -1 -2 -3 -6 -8 -20 -23 -21 -19 -15 -13 -13 -15 -17 -18 -17 -16 -14 -12 -11 -11 -11 -10 -11 -10 -10 -10 -10 -10 -10 -11 -14 -13 -12 -12 -12 -13 -12 -12
-2 -2 -3 -3 -3 -3 -6 -7 -20 -23 -22 -20 -17 -14 -13 -14 -16 -17 -18 -18 -17 -15 -12 -11 -11 -11 -11 -11 -11 -11 -10 -10 -11 -11 -13 -12 -12 -12 -12 -12 -12 -12 -12

GFSMW_850_dewp_030.txt.gz
Dewpoint
0 1 1 0 -0 2 3 4 3 3 4 9 11 12 11 11 11 11 11 10 6 -2 -3 -3 -3 -3 -4 -4 -5 -7 -9 -11 -12 -13 -12 -14 -14 -14 -9 -12 -15 -21 -23
2 2 2 1 2 4 5 5 4 3 7 9 12 12 11 11 11 11 7 -3 -4 -3 -2 -2 -2 -2 -2 -4 -7 -9 -12 -16 -20 -21 -16 -17 -15 -10 -14 -15 -21 -21 -22
1 2 2 3 5 6 7 8 9 10 11 11 12 11 11 11 9 2 -4 -3 -2 -2 -2 -1 -1 -2 -4 -7 -10 -13 -16 -19 -22 -22 -15 -16 -12 -17 -16 -21 -18 -22 -26
2 3 4 6 8 8 9 9 10 11 11 11 11 11 10 7 -1 -4 -3 -2 -2 -1 -1 -1 -2 -4 -8 -10 -15 -19 -21 -22 -22 -21 -19 -17 -15 -15 -13 -16 -23 -21 -24
2 3 4 7 9 9 10 10 10 11 11 9 7 6 3 -3 -4 -3 -2 -2 -1 -1 -1 -2 -5 -9 -11 -16 -20 -22 -22 -21 -21 -19 -18 -19 -19 -19 -11 -11 -15 -24 -26
3 4 6 8 10 10 10 10 11 10 9 6 2 -1 -4 -4 -3 -2 -2 -1 -1 -1 -2 -5 -9 -12 -16 -19 -21 -22 -21 -20 -18 -18 -19 -20 -19 -16 -15 -16 -15 -12 -15
3 4 6 7 8 9 10 10 9 7 3 1 -0 -3 -3 -2 -2 -2 -1 -1 -1 -2 -4 -8 -12 -15 -19 -22 -23 -22 -20 -19 -18 -19 -20 -20 -18 -17 -18 -21 -19 -13 -12
4 4 4 5 5 5 5 4 3 3 3 2 -3 -3 -2 -2 -1 -1 -1 -1 -1 -3 -6 -11 -15 -18 -22 -23 -21 -20 -18 -18 -20 -21 -22 -21 -20 -20 -20 -20 -16 -11 -11
4 4 4 4 4 4 4 3 3 3 2 -2 -2 -2 -2 -1 -1 -1 -1 -1 -2 -4 -8 -12 -17 -23 -24 -21 -19 -18 -19 -21 -22 -23 -21 -20 -19 -19 -20 -22 -17 -9 -8
5 4 4 4 4 3 3 2 1 -1 -2 -2 -2 -2 -1 -1 -1 -1 -1 -1 -3 -7 -12 -17 -23 -24 -22 -18 -17 -19 -21 -22 -22 -20 -18 -18 -17 -17 -20 -17 -13 -10 -9
5 5 4 3 2 1 -0 -1 -2 -2 -2 -2 -2 -1 -1 -1 -1 -1 -1 -3 -7 -12 -18 -24 -24 -22 -18 -18 -20 -21 -21 -21 -19 -17 -16 -14 -13 -15 -16 -15 -12 -10 -9
5 5 4 3 2 1 -0 -1 -2 -2 -3 -2 -2 -1 -1 -1 -1 -1 -2 -6 -12 -19 -24 -23 -20 -17 -18 -20 -22 -21 -21 -19 -17 -15 -12 -12 -13 -13 -14 -13 -10 -9 -9
5 5 4 3 2 1 0 -1 -2 -3 -3 -2 -2 -1 -1 -1 -1 -2 -5 -10 -19 -24 -23 -19 -17 -18 -20 -22 -22 -22 -20 -19 -14 -12 -11 -12 -11 -12 -12 -10 -9 -9 -8
5 5 4 3 2 2 1 0 -2 -3 -3 -3 -2 -2 -1 -1 -2 -4 -9 -18 -23 -23 -18 -16 -18 -20 -21 -22 -23 -22 -18 -14 -12 -12 -11 -11 -10 -11 -9 -9 -8 -8 -8
5 5 5 4 3 2 2 0 -1 -3 -3 -3 -3 -2 -1 -2 -4 -8 -17 -23 -23 -17 -16 -17 -19 -21 -22 -23 -24 -16 -12 -12 -12 -11 -10 -10 -10 -9 -9 -9 -8 -9 -8
4 4 4 4 3 3 2 -0 -1 -3 -3 -3 -2 -2 -2 -4 -7 -15 -22 -23 -17 -15 -17 -19 -20 -21 -22 -23 -19 -11 -11 -12 -10 -10 -10 -11 -11 -9 -9 -9 -9 -9 -8
4 4 4 4 3 3 2 -0 -1 -3 -3 -3 -2 -2 -4 -6 -12 -21 -23 -16 -15 -16 -18 -20 -20 -21 -23 -23 -19 -13 -12 -11 -10 -10 -11 -11 -10 -10 -11 -10 -9 -10 -8
4 4 4 4 3 2 1 -0 -2 -3 -3 -3 -2 -4 -6 -9 -20 -22 -16 -14 -15 -17 -19 -20 -20 -21 -23 -22 -21 -18 -12 -12 -12 -12 -11 -9 -10 -10 -10 -9 -9 -9 -12
3 3 4 4 3 2 0 -1 -3 -4 -3 -3 -4 -5 -7 -18 -23 -16 -14 -14 -16 -18 -19 -20 -21 -22 -22 -21 -20 -10 -10 -11 -11 -12 -9 -9 -10 -10 -9 -8 -9 -10 -11
3 3 3 3 3 1 -1 -2 -3 -4 -3 -3 -5 -7 -16 -23 -16 -13 -13 -14 -17 -18 -19 -21 -23 -22 -21 -19 -16 -9 -10 -10 -11 -9 -10 -10 -10 -9 -9 -10 -10 -11 -13
3 3 3 3 1 -1 -2 -3 -4 -3 -3 -5 -6 -14 -23 -17 -13 -13 -13 -15 -18 -19 -20 -23 -24 -23 -20 -16 -12 -9 -9 -9 -8 -10 -10 -11 -10 -9 -11 -11 -11 -11 -10
3 3 3 1 -1 -2 -3 -3 -3 -3 -5 -6 -13 -23 -18 -14 -13 -13 -13 -16 -18 -20 -23 -24 -24 -21 -18 -14 -13 -10 -10 -9 -10 -9 -11 -10 -10 -11 -11 -11 -11 -10 -10
2 1 1 -1 -3 -3 -3 -2 -2 -5 -6 -10 -22 -19 -16 -14 -13 -13 -14 -17 -19 -23 -24 -21 -18 -16 -15 -13 -12 -10 -10 -10 -10 -11 -10 -10 -11 -13 -15 -13 -11 -11 -13
2 1 0 -1 -3 -4 -3 -3 -4 -6 -9 -22 -21 -18 -16 -14 -12 -13 -16 -18 -22 -24 -21 -18 -15 -14 -13 -12 -10 -9 -11 -10 -10 -10 -11 -13 -14 -16 -14 -13 -13 -13 -12
-1 -2 -2 -2 -3 -3 -3 -5 -6 -9 -22 -22 -19 -17 -15 -13 -12 -14 -17 -20 -23 -22 -16 -15 -12 -12 -11 -11 -10 -10 -10 -10 -10 -11 -13 -15 -15 -15 -13 -13 -13 -13 -12
-3 -3 -3 -2 -2 -2 -4 -6 -10 -21 -22 -20 -19 -17 -14 -12 -13 -16 -18 -23 -23 -23 -22 -21 -15 -13 -11 -11 -11 -11 -10 -11 -11 -12 -14 -14 -14 -13 -13 -12 -12 -12 -12